Regional Weather Roundup
Issued by NWS Grand Forks, ND

Home | Current Version | Previous Version | Graphics & Text | Print | Product List | Glossary On
Versions: 1 2 3 4 5 6 7 8 9 10 11 12 13 14 15 16 17 18 19 20 21 22 23 24 25 26 27 28 29 30 31 32 33 34 35 36 37 38 39 40 41 42 43 44 45 46 47 48 49 50
614
ASUS43 KFGF 090810
RWRFGF
PRAIRIE TO PINES  WEATHER ROUNDUP
NATIONAL WEATHER SERVICE EASTERN NORTH DAKOTA/GRAND FORKS ND
200 AM CST TUE FEB 09 2016

 **SATELLITE DATA USED TO AUGMENT SKY COVER AT AUTOMATED STATIONS**
 *****  WEATHER ACROSS EASTERN NORTH DAKOTA  *****

CITY           SKY/WX    TMP DP  RH WIND       PRES   REMARKS
GRAND FORKS    PTCLDY     4  -1  80 NW9       30.27R WCI -10
GRAND FRKS AFB MOCLDY     4  -2  75 NW9       30.27R WCI -10
DEVILS LAKE    CLOUDY     8   5  87 CALM      30.24F
FARGO          CLEAR      6   0  76 N15       30.25R WCI -12
WAHPETON ARPT  SUNNY      9   1  72 N17G25    30.22R WCI -10
$$

 ***** WEATHER ACROSS CENTRAL AND WESTERN NORTH DAKOTA  *****

CITY           SKY/WX    TMP DP  RH WIND       PRES   REMARKS
BISMARCK       CLOUDY    26  11  52 N9        30.29R WCI  17
MINOT          CLOUDY    25  14  63 SW6       30.25F WCI  18
JAMESTOWN      CLEAR      8   4  83 N8        30.25R WCI  -4
MINOT AFB      CLOUDY    23  19  84 CALM      30.23F
GARRISON         N/A     22  14  71 CALM      30.27S
WILLISTON      CLOUDY    29  21  72 S3        30.24S
DICKINSON      CLOUDY    28  18  66 CALM      30.20F
HETTINGER      CLOUDY    27  16  63 CALM      30.22F
$$

 *****  OTHER AIRPORT OBSERVATIONS IN OUR AREA  *****

CITY           SKY/WX    TMP DP  RH WIND       PRES   REMARKS
WALHALLA       FAIR      12   7  79 N14       30.26F WCI  -3
GRAFTON AIRPOR CLOUDY     7   3  85 NW10G17   30.30R WCI  -8
VALLEY CITY AR FAIR       7   5  92 N12       30.26S WCI  -9
CANDO          NOT AVBL
CAVALIER APRT  CLOUDY     9   5  85 NW9       30.27F WCI  -5
GWINNER        FAIR      10   5  79 N13       30.24R WCI  -5
ROLLA          CLOUDY    14   7  73 N8        30.22F WCI   3
 ***** THE ABOVE OBSERVATIONS ARE NON NWS ARE NOT QUALITY
       CONTROLLED AND MAY MIS-REPORT RAIN FOR SNOW...
$$

  *****  WEATHER ACROSS NORTHERN MINNESOTA  *****

CITY           SKY/WX    TMP DP  RH WIND       PRES   REMARKS
FLAG ISLAND    CLOUDY    -4  -8  84 NW10      30.15R WCI -21
WARROAD        CLOUDY     0  -6  78 NW5       30.18R WCI -10
ROSEAU         PTCLDY     0  -6  78 NW10      30.19R WCI -17
HALLOCK        CLOUDY     0  -4  85 NW7       30.26S WCI -13
THF RVR FALLS  NOT AVBL
BAUDETTE       CLOUDY     0  -6  76 NW12      30.12R WCI -17
WASKISH        CLEAR      1  -2  85 NW7       30.12R WCI -11
CROOKSTON      CLEAR      3   0  85 N10       30.26R WCI -12
STEPHEN NDAWN    N/A      1  -2  85 NW6         N/A  WCI -10
GREENBUSH NDAW   N/A     -4  -8  84 NW7         N/A  WCI -18
$$
  *****  WEATHER ACROSS CENTRAL AND WEST MINNESOTA  *****

CITY           SKY/WX    TMP DP  RH WIND       PRES   REMARKS
FOSSTON        CLOUDY    -2  -6  84 N10       30.17R WCI -19
BEMIDJI        PTCLDY     2  -3  79 NW14G22   30.10R WCI -16
PARK RAPIDS    PTCLDY     5  -3  69 N15       30.07S WCI -13
ELBOW LAKE     FAIR       4   0  81 NW16G22   30.14R WCI -15
WADENA         CLEAR      3  -2  78 N15       30.08R WCI -15
DETROIT LAKES  FLURRIES   3   0  85 N13       30.15R WCI -14
MOORHEAD       CLEAR      5   0  78 N14       30.24R WCI -12
FERGUS FALLS   PTCLDY     3   0  85 N15       30.20R WCI -15
MORRIS MN      PTCLDY     7   1  78 N24       30.12S WCI -15
STAPLES        CLEAR      3  -4  72 N14G20    30.07S WCI -15
$$
  *****  WEATHER ELSEWHERE ACROSS MINNESOTA  *****

CITY           SKY/WX    TMP DP  RH WIND       PRES   REMARKS
DULUTH         CLOUDY     2  -5  72 N15       29.92F WCI -17
INTRNTL FALLS  CLOUDY     2  -4  76 N16       30.07R WCI -18
ELY            CLOUDY     0  -4  85 N6        29.95R WCI -12
CLOQUET        CLOUDY     3  -4  72 NW10G21   29.96S WCI -12
WHEATON        CLOUDY     9   3  78 NW17      30.21R WCI -10
BRAINERD       PTCLDY     4  -3  73 N16       30.05R WCI -15
HIBBING        CLOUDY     0  -5  79 NW18G25   29.98S WCI -21
ALEXANDRIA     MOCLDY     6  -1  73 N13       30.07S WCI -10
SAINT CLOUD    CLEAR      8   0  69 N10       30.04R WCI  -6
MINNEAPOLIS    FLURRIES  11   2  67 NW14G25   30.00S WCI  -5
$$

  *****  WEATHER ACROSS SOUTH DAKOTA  *****

CITY           SKY/WX    TMP DP  RH WIND       PRES   REMARKS
SIOUX FALLS    MOCLDY    11   4  73 N20G28    30.12S WCI  -7
BROOKINGS      CLOUDY     7   1  76 N21G30    30.11R WCI -13
WATERTOWN      CLEAR      6   0  76 N15       30.13R WCI -12
HURON          CLEAR     15   9  76 N13       30.22S WCI   1
SISSETON         N/A      6   2  83 N20       30.20R WCI -14
ABERDEEN       CLEAR     14   8  77 N12       30.24S WCI   0
MITCHELL       CLEAR     17  10  74 N16G23    30.23R WCI   2
PIERRE         CLEAR     23  16  74 N13       30.23S WCI  11
MOBRIDGE       CLOUDY    23  15  71 NW8       30.23R WCI  14
RAPID CITY     CLOUDY    30  18  60 N5        30.22F
$$

  *****  SOME WEATHER IN NEARBY STATES *****

CITY           SKY/WX    TMP DP  RH WIND       PRES   REMARKS
GLASGOW MT     CLOUDY    26  20  77 NW7       30.24R WCI  18
GREAT FALLS MT CLOUDY    41  29  62 SW15      30.33S
CHEYENNE WY    CLEAR     35  19  52 NW13      30.28F
SCOTTSBLUFF NE MOCLDY    31  25  78 NW12      30.24F WCI  22
OMAHA NE       CLEAR     22  12  65 N22G30    30.08S WCI   6
DES MOINES IA  LGT SNOW  14   6  70 N17G25    30.01R WCI  -3
DAVENPORT IA   LGT SNOW  15  10  80 NW18      29.85S WCI  -2
CHICAGO IL     LGT SNOW  19  15  84 NW14      29.72S FOG     WCI   6
EAU CLAIRE WI  CLOUDY     8  -2  63 NW16G22   29.92S WCI -10
LA CROSSE WI   CLOUDY    11   1  64 N18G28    29.92R WCI  -7
$$

  *****  SOME NATIONAL WEATHER *****

CITY           SKY/WX    TMP DP  RH WIND       PRES   REMARKS
LA GUARDIA NY  FLURRIES  28  22  78 E8        29.73F WCI  20
RALEIGH NC     MOCLDY    35  33  92 CALM      29.61S
ATLANTA GA     CLOUDY    36  23  59 W17G23    29.80S
NEW ORLEANS LA CLEAR     44  20  38 W13       30.13F
OKLAHOMA CITY  PTCLDY    31  14  49 NW6       30.23F
ALBUQUERQUE NM CLOUDY    32  19  58 CALM      30.39F
SALT LAKE CITY PTCLDY    28  25  88 SW3       30.62F FOG
LOS ANGELES CA CLEAR     67  29  24 NE3       30.13S
BOISE ID       PTCLDY    34  27  75 SE8       30.63F
SEATTLE WA     CLEAR     45  41  86 N10       30.27F
$$

*** WEATHER ACROSS MANITOBA...SASKATCHEWAN AND ONTARIO ***
                ***ONTARIO***

CITY           SKY/WX    TMP DP  RH WIND       PRES   REMARKS
GERALDTON      LGT SNOW  -4  -9  77 N13G18    29.85R DRFTSNOWWCI -23
THUNDER BAY    LGT SNOW   5  -2  72 NW8G17    29.91R WCI  -8
SIOUX LOOKOUT  FLURRIES  -2  -6  84 N8        30.03S WCI -17
TORONTO        FLURRIES  28  25  86 E14G24    29.50F WCI  17
BIG TROUT LK   FLURRIES  -6 -11  77 N9G18     30.10R WCI -22
PICKLE LAKE    NOT AVBL
DRYDEN         FLURRIES   0  -4  85 NW10G17   30.05R WCI -17
KENORA         NOT AVBL
$$
                *** MANITOBA***

CITY           SKY/WX    TMP DP  RH WIND       PRES   REMARKS
BRANDON        CLOUDY    12   7  79 W5        30.26F WCI   4
DAUPHIN        CLOUDY    12   9  85 CALM      30.28S
ISLAND LAKE    CLEAR    -18 -22  83 NW9       30.28R WCI -38
PILOT MOUND      N/A      9   7  92 NW7         N/A  WCI  -3
THE PAS        FLURRIES   1  -6  71 NE6       30.36S WCI -10
THOMPSON       CLEAR    -24 -29  76 N6        30.38S WCI -40
WINNIPEG       MOCLDY     3  -2  78 N8        30.28S WCI -10
LYNN LAKE      CLEAR    -26 -31  75 NW5       30.37S WCI -40
CHURCHILL      CRYSTALS -20 -26  76 N14       30.40S DRFTSNOWWCI -44
GILLAM         CLEAR    -22 -29  69 NW12      30.35R WCI -45
$$
                ***SASKATCHEWAN***

CITY           SKY/WX    TMP DP  RH WIND       PRES   REMARKS
ESTEVAN        MOCLDY    23  19  86 S7        30.21F WCI  15
KINDERSLEY     CLOUDY    28  25  86 VRB2      30.21F
LLOYDMINSTER   FLURRIES  32  28  86 W9        30.19S WCI  24
PRINCE ALBERT  CLOUDY    19  16  86 CALM      30.23S
REGINA         CLOUDY    25  21  86 S6        30.20S WCI  18
YORKTON        CLOUDY    23  19  86 S5        30.20F WCI  17
N. BATTLEFORD  CLOUDY    25  21  86 CALM      30.24S
LA RONGE       CLOUDY     7   1  78 NE3       30.31S
SASKATOON      MOCLDY    19  18  93 SW2       30.22F
SWIFT CURRENT  CLOUDY    30  27  86 W12       30.20F WCI  21
$$
NOTE: THESE ARE AUTOMATED STATIONS WITH LIMITED QUALITY CONTROL
      "FAIR" INDICATES FEW OR NO CLOUDS BELOW 12,000 FEET WITH NO
      SIGNIFICANT WEATHER AND/OR OBSTRUCTIONS TO VISIBILITY.
      SKY/WX - SKY CONDITION AND SIGNIFICANT WEATHER.
      TMP - AIR TEMPERATURE.    DP   - DEWPOINT TEMPERATURE.
      RH  - RELATIVE HUMIDITY.  PRES - PRESSURE.
      HX  - HEAT INDEX.         WCI  - WIND CHILL INDEX.
$




USA.gov is the U.S. government's official web portal to all federal, state and local government web resources and services.